Weather in Gorodovikovsk

Russia / Republic of Kalmykia     46˚04′59″N   41˚56′09″E
temp.,
°C
wind,
m/s
gust,
m/s
humid.,
%
clouds,
%
prec.,
mm/h
press.,
hPa
HPBL,
m
16 january, sat
sat1600:00−3˚w3795100 0.0 1013261
03:00−3˚sw489563 0.0 1014252
06:00−3˚sw379577 0.0 1014164
09:00−2˚wsw5109267 0.0 1016529
12:00wsw587250 0.0 1017815
15:00−1˚w577030 0.0 1017805
18:00−4˚wsw33840 0.0 101766
21:00−3˚nw228546 0.0 101862
17 january, sun
sun1700:00−4˚ne2486100 0.0 1017145
03:00−5˚ne5885100 0.0 1015294
06:00−4˚e61176100 0.0 1013380
09:00−4˚ene81276100 0.0 1011534
12:00−2˚ene101572100 0.2 1009741
15:00−2˚ene81283100 0.7 1007780
18:00−3˚e91490100 0.6 1008689
21:00−3˚e91488100 1.3 1006647
18 january, mon
mon1800:00−4˚e61092100 0.4 1006581
03:00−5˚ene6996100 8.1 1007391
06:00−6˚e4796100 6.7 1008354
09:00−5˚ene3496100 7.5 1012184
12:00−5˚wnw4794100 0.4 1013576
15:00−6˚wnw6890100 0.6 1015713
18:00−8˚wnw4793100 0.1 1017292
21:00−10˚w4795100 0.1 1018218
19 january, tue
tue1900:00−10˚w3696100 0.0 1019145
03:00−12˚wsw2296100 0.0 102024
06:00−12˚sw2396100 0.0 101921
09:00−10˚s229497 0.0 101926
12:00−5˚w3594100 0.3 1018304
15:00−4˚wsw4791100 0.3 1018606
18:00−7˚w3394100 0.0 102041
21:00−8˚nw3696100 0.6 1022198
20 january, wed
wed2000:00−11˚w3494100 0.1 102386
03:00−15˚wnw349577 0.1 102534
06:00−17˚w33960 0.0 102627
09:00−16˚w23949 0.0 102749
12:00−12˚w34912 0.0 1028263
15:00−10˚w359246 0.0 1027366
18:00−14˚w229682 0.0 102920
21:00−15˚wsw229656 0.0 103120